FDX582 GCXO-LPPD

Flight info

Callsign FDX582
Flight time 2h 6m
Altitude 36000
Route ARACO DCT NASOL DCT 30N018W/M081F360 31N019W DCT 3220N DCT 33N021W 34N022W 35N023W 36N024W DCT VSM
Aircraft B738/M-SDE2E3FGHIRWXY/LB1

Departure

Time 2026-05-08 23:42
Airport Tenerife Norte-Ciudad de La Laguna Airport (GCXO)

Arrival

Time 2026-05-09 01:48
Airport João Paulo II Airport (LPPD)
Time Latitude Longitude Altitude Speed Heading
2026-05-08 23:06 28.48598 -16.34398 2058 ft 0 kts 21°
2026-05-08 23:31 28.48578 -16.34406 2058 ft 4 kts 21°
2026-05-08 23:31 28.48553 -16.34417 2059 ft 4 kts 21°
2026-05-08 23:31 28.48528 -16.34428 2059 ft 4 kts 21°
2026-05-08 23:32 28.48506 -16.34438 2059 ft 4 kts 24°
2026-05-08 23:32 28.48487 -16.34453 2060 ft 5 kts 79°
2026-05-08 23:32 28.48490 -16.34481 2061 ft 4 kts 110°
2026-05-08 23:32 28.48493 -16.34488 2062 ft 2 kts 110°
2026-05-08 23:36 28.48492 -16.34484 2062 ft 0 kts 110°
2026-05-08 23:36 28.48487 -16.34470 2061 ft 5 kts 110°
2026-05-08 23:36 28.48469 -16.34417 2059 ft 10 kts 111°
2026-05-08 23:36 28.48441 -16.34332 2055 ft 13 kts 111°
2026-05-08 23:37 28.48407 -16.34231 2051 ft 15 kts 110°
2026-05-08 23:37 28.48368 -16.34112 2049 ft 17 kts 111°
2026-05-08 23:37 28.48322 -16.33976 2042 ft 19 kts 110°
2026-05-08 23:37 28.48276 -16.33834 2037 ft 19 kts 110°
2026-05-08 23:38 28.48230 -16.33696 2040 ft 19 kts 110°
2026-05-08 23:38 28.48184 -16.33560 2035 ft 18 kts 111°
2026-05-08 23:38 28.48141 -16.33430 2036 ft 18 kts 111°
2026-05-08 23:38 28.48098 -16.33301 2031 ft 17 kts 110°
2026-05-08 23:39 28.48053 -16.33172 2031 ft 19 kts 114°
2026-05-08 23:39 28.48009 -16.33033 2017 ft 20 kts 112°
2026-05-08 23:39 28.47960 -16.32887 2016 ft 20 kts 108°
2026-05-08 23:39 28.47912 -16.32739 2013 ft 20 kts 110°
2026-05-08 23:40 28.47894 -16.32684 2014 ft 6 kts 110°
2026-05-08 23:40 28.47874 -16.32624 2011 ft 12 kts 114°
2026-05-08 23:40 28.47804 -16.32543 2013 ft 15 kts 153°
2026-05-08 23:40 28.47748 -16.32576 2014 ft 10 kts 266°
2026-05-08 23:41 28.47762 -16.32635 2013 ft 26 kts 290°
2026-05-08 23:41 28.47909 -16.33075 2028 ft 91 kts 290°
2026-05-08 23:41 28.48201 -16.33958 2048 ft 145 kts 291°
2026-05-08 23:41 28.48626 -16.35114 2477 ft 160 kts 291°
2026-05-08 23:42 28.49043 -16.36271 3312 ft 161 kts 293°
2026-05-08 23:42 28.49470 -16.37471 4085 ft 167 kts 291°
2026-05-08 23:42 28.49933 -16.38811 4382 ft 198 kts 291°
2026-05-08 23:42 28.50457 -16.40350 4645 ft 222 kts 291°
2026-05-08 23:43 28.51029 -16.42056 5118 ft 237 kts 290°
2026-05-08 23:43 28.51640 -16.43882 5461 ft 258 kts 290°
2026-05-08 23:43 28.52285 -16.45762 6591 ft 249 kts 290°
2026-05-08 23:43 28.52898 -16.47617 6905 ft 254 kts 290°
2026-05-08 23:44 28.53539 -16.49489 7105 ft 257 kts 291°
2026-05-08 23:44 28.54198 -16.51408 7101 ft 260 kts 290°
2026-05-08 23:44 28.54532 -16.53412 7094 ft 257 kts 266°
2026-05-08 23:44 28.54061 -16.55341 7108 ft 258 kts 247°
2026-05-08 23:45 28.52989 -16.56980 7099 ft 263 kts 225°
2026-05-08 23:45 28.51715 -16.58491 7097 ft 263 kts 239°
2026-05-08 23:45 28.50892 -16.60314 7105 ft 261 kts 252°
2026-05-08 23:45 28.50385 -16.62286 7095 ft 259 kts 262°
2026-05-08 23:46 28.50161 -16.64305 7103 ft 257 kts 266°
2026-05-08 23:46 28.50021 -16.66315 7093 ft 257 kts 267°
2026-05-08 23:46 28.50227 -16.68322 7218 ft 261 kts 294°
2026-05-08 23:46 28.50993 -16.69943 7949 ft 260 kts 297°
2026-05-08 23:47 28.51860 -16.71780 8994 ft 256 kts 297°
2026-05-08 23:47 28.52700 -16.73579 9879 ft 258 kts 297°
2026-05-08 23:47 28.53540 -16.75393 10532 ft 267 kts 297°
2026-05-08 23:47 28.54441 -16.77347 10729 ft 291 kts 297°
2026-05-08 23:48 28.55419 -16.79479 10905 ft 315 kts 297°
2026-05-08 23:48 28.56265 -16.81328 11042 ft 332 kts 297°
2026-05-08 23:48 28.57368 -16.83744 11186 ft 352 kts 297°
2026-05-08 23:48 28.58508 -16.86244 11476 ft 364 kts 297°
2026-05-08 23:49 28.59685 -16.88832 12002 ft 369 kts 296°
2026-05-08 23:49 28.60871 -16.91440 12612 ft 370 kts 296°
2026-05-08 23:49 28.62043 -16.94020 13192 ft 373 kts 296°
2026-05-08 23:49 28.63239 -16.96655 13725 ft 376 kts 296°
2026-05-08 23:50 28.64446 -16.99316 14223 ft 379 kts 296°
2026-05-08 23:50 28.65662 -17.02002 14720 ft 381 kts 296°
2026-05-08 23:50 28.66471 -17.03787 15067 ft 382 kts 296°
2026-05-08 23:50 28.68090 -17.07365 15686 ft 385 kts 296°
2026-05-08 23:51 28.69328 -17.10102 16165 ft 388 kts 296°
2026-05-08 23:51 28.70154 -17.11931 16472 ft 389 kts 296°
2026-05-08 23:51 28.71806 -17.15589 17112 ft 392 kts 296°
2026-05-08 23:51 28.72647 -17.17453 17454 ft 392 kts 296°
2026-05-08 23:52 28.73898 -17.20228 17901 ft 395 kts 295°
2026-05-08 23:52 28.75157 -17.23021 18310 ft 398 kts 295°
2026-05-08 23:52 28.76630 -17.26293 18743 ft 400 kts 295°
2026-05-08 23:52 28.77491 -17.28206 19017 ft 401 kts 295°
2026-05-08 23:53 28.78765 -17.31037 19435 ft 401 kts 295°
2026-05-08 23:53 28.80044 -17.33882 19824 ft 403 kts 295°
2026-05-08 23:53 28.81306 -17.36693 20197 ft 404 kts 295°
2026-05-08 23:53 28.82705 -17.39490 20559 ft 408 kts 303°
2026-05-08 23:54 28.84629 -17.41920 20858 ft 416 kts 314°
2026-05-08 23:54 28.86913 -17.43987 21210 ft 422 kts 322°
2026-05-08 23:54 28.89513 -17.45549 21545 ft 430 kts 331°
2026-05-08 23:55 28.95076 -17.48213 22227 ft 434 kts 332°
2026-05-08 23:55 28.97840 -17.49525 22604 ft 435 kts 332°
2026-05-08 23:55 29.00650 -17.50870 22953 ft 436 kts 332°
2026-05-08 23:55 29.03452 -17.52223 23257 ft 438 kts 331°
2026-05-08 23:56 29.06266 -17.53593 23549 ft 440 kts 331°
2026-05-08 23:56 29.09061 -17.54959 23806 ft 441 kts 331°
2026-05-08 23:56 29.11887 -17.56345 24051 ft 442 kts 331°
2026-05-08 23:56 29.14738 -17.57745 24314 ft 443 kts 330°
2026-05-08 23:57 29.17537 -17.59121 24550 ft 444 kts 330°
2026-05-08 23:57 29.20387 -17.60522 24780 ft 446 kts 330°
2026-05-08 23:57 29.23261 -17.61936 25085 ft 446 kts 330°
2026-05-08 23:57 29.26117 -17.63340 25371 ft 446 kts 330°
2026-05-08 23:58 29.28941 -17.64731 25589 ft 447 kts 330°
2026-05-08 23:58 29.31801 -17.66141 25768 ft 449 kts 330°
2026-05-08 23:58 29.34679 -17.67560 25944 ft 450 kts 330°
2026-05-08 23:58 29.37547 -17.68973 26392 ft 443 kts 329°
2026-05-08 23:59 29.40326 -17.70338 27034 ft 436 kts 329°
2026-05-08 23:59 29.42890 -17.71601 27328 ft 435 kts 328°
2026-05-08 23:59 29.45546 -17.72915 27596 ft 436 kts 328°
2026-05-08 23:59 29.48348 -17.74304 27867 ft 437 kts 328°
2026-05-09 00:00 29.51107 -17.75671 28174 ft 436 kts 328°
2026-05-09 00:00 29.53899 -17.77053 28565 ft 434 kts 328°
2026-05-09 00:00 29.56669 -17.78424 29008 ft 431 kts 327°
2026-05-09 00:00 29.59389 -17.79770 29407 ft 429 kts 327°
2026-05-09 00:01 29.62144 -17.81136 29785 ft 428 kts 327°
2026-05-09 00:01 29.64880 -17.82495 30147 ft 427 kts 327°
2026-05-09 00:01 29.67568 -17.83829 30479 ft 425 kts 327°
2026-05-09 00:01 29.70290 -17.85181 30834 ft 423 kts 327°
2026-05-09 00:02 29.72998 -17.86527 31236 ft 421 kts 326°
2026-05-09 00:02 29.75654 -17.87846 31645 ft 417 kts 326°
2026-05-09 00:02 29.78313 -17.89169 32023 ft 415 kts 326°
2026-05-09 00:02 29.80958 -17.90487 32347 ft 413 kts 326°
2026-05-09 00:03 29.83602 -17.91806 32654 ft 412 kts 326°
2026-05-09 00:03 29.86211 -17.93108 32967 ft 411 kts 326°
2026-05-09 00:03 29.88840 -17.94420 33306 ft 409 kts 326°
2026-05-09 00:03 29.91460 -17.95728 33636 ft 407 kts 326°
2026-05-09 00:04 29.94026 -17.97010 33941 ft 406 kts 326°
2026-05-09 00:04 29.96614 -17.98303 34213 ft 405 kts 326°
2026-05-09 00:04 29.99145 -17.99701 34508 ft 396 kts 320°
2026-05-09 00:04 30.01434 -18.01390 34801 ft 385 kts 314°
2026-05-09 00:05 30.03447 -18.03326 35066 ft 378 kts 310°
2026-05-09 00:05 30.05442 -18.05318 35255 ft 379 kts 310°
2026-05-09 00:05 30.07446 -18.07316 35415 ft 380 kts 310°
2026-05-09 00:05 30.09455 -18.09315 35551 ft 380 kts 311°
2026-05-09 00:06 30.11438 -18.11285 35676 ft 381 kts 311°
2026-05-09 00:06 30.13457 -18.13286 35875 ft 380 kts 311°
2026-05-09 00:06 30.15473 -18.15283 36059 ft 380 kts 311°
2026-05-09 00:07 30.19483 -18.19259 36053 ft 381 kts 311°
2026-05-09 00:07 30.23508 -18.23248 36107 ft 379 kts 311°
2026-05-09 00:08 30.27484 -18.27196 36069 ft 377 kts 311°
2026-05-09 00:08 30.31470 -18.31159 36059 ft 376 kts 311°
2026-05-09 00:09 30.35419 -18.35090 36057 ft 375 kts 311°
2026-05-09 00:09 30.39357 -18.39015 36058 ft 375 kts 311°
2026-05-09 00:10 30.43324 -18.42972 36054 ft 375 kts 311°
2026-05-09 00:10 30.47274 -18.46917 36092 ft 376 kts 311°
2026-05-09 00:11 30.51253 -18.50896 36063 ft 377 kts 311°
2026-05-09 00:11 30.55221 -18.54867 36057 ft 378 kts 311°
2026-05-09 00:12 30.59204 -18.58858 36057 ft 378 kts 311°
2026-05-09 00:12 30.63175 -18.62841 36052 ft 378 kts 311°
2026-05-09 00:13 30.67167 -18.66849 36052 ft 378 kts 311°
2026-05-09 00:13 30.71136 -18.70840 36078 ft 379 kts 311°
2026-05-09 00:14 30.75142 -18.74873 36056 ft 380 kts 311°
2026-05-09 00:14 30.79114 -18.78874 36049 ft 380 kts 311°
2026-05-09 00:15 30.83114 -18.82910 36049 ft 379 kts 311°
2026-05-09 00:15 30.87108 -18.86943 36045 ft 379 kts 311°
2026-05-09 00:16 30.91074 -18.90954 36049 ft 379 kts 311°
2026-05-09 00:16 30.95071 -18.95002 36055 ft 381 kts 311°
2026-05-09 00:17 30.99060 -18.99044 36047 ft 381 kts 311°
2026-05-09 00:17 31.03091 -19.03077 36046 ft 382 kts 312°
2026-05-09 00:18 31.07140 -19.07059 36044 ft 383 kts 312°
2026-05-09 00:18 31.11223 -19.11080 36043 ft 383 kts 312°
2026-05-09 00:19 31.15276 -19.15083 36040 ft 382 kts 312°
2026-05-09 00:19 31.19343 -19.19112 36050 ft 383 kts 312°
2026-05-09 00:20 31.23397 -19.23132 36049 ft 384 kts 312°
2026-05-09 00:20 31.27495 -19.27200 36049 ft 385 kts 312°
2026-05-09 00:21 31.31564 -19.31245 36039 ft 385 kts 312°
2026-05-09 00:21 31.35633 -19.35293 36044 ft 385 kts 312°
2026-05-09 00:22 31.39729 -19.39375 36078 ft 386 kts 313°
2026-05-09 00:22 31.43820 -19.43457 36047 ft 389 kts 313°
2026-05-09 00:23 31.47947 -19.47578 36026 ft 389 kts 313°
2026-05-09 00:23 31.52057 -19.51686 36034 ft 389 kts 313°
2026-05-09 00:24 31.56181 -19.55815 36039 ft 388 kts 313°
2026-05-09 00:24 31.60277 -19.59921 36042 ft 388 kts 313°
2026-05-09 00:25 31.64391 -19.64050 36046 ft 390 kts 313°
2026-05-09 00:25 31.68503 -19.68183 36041 ft 391 kts 313°
2026-05-09 00:26 31.72629 -19.72333 36038 ft 391 kts 313°
2026-05-09 00:26 31.76770 -19.76504 36040 ft 392 kts 313°
2026-05-09 00:27 31.80895 -19.80663 36018 ft 392 kts 313°
2026-05-09 00:27 31.85031 -19.84839 36032 ft 391 kts 313°
2026-05-09 00:28 31.89133 -19.88985 36036 ft 390 kts 313°
2026-05-09 00:28 31.93255 -19.93159 36040 ft 390 kts 313°
2026-05-09 00:29 31.97360 -19.97319 36039 ft 390 kts 313°
2026-05-09 00:29 32.01469 -20.01471 36038 ft 390 kts 313°
2026-05-09 00:30 32.05624 -20.05569 36075 ft 390 kts 314°
2026-05-09 00:30 32.09815 -20.09690 36050 ft 392 kts 314°
2026-05-09 00:31 32.13989 -20.13807 36028 ft 392 kts 314°
2026-05-09 00:31 32.18178 -20.17950 36029 ft 392 kts 314°
2026-05-09 00:32 32.22350 -20.22084 36040 ft 392 kts 314°
2026-05-09 00:32 32.26541 -20.26242 36041 ft 393 kts 314°
2026-05-09 00:33 32.30715 -20.30390 36040 ft 394 kts 314°
2026-05-09 00:33 32.34922 -20.34575 36036 ft 395 kts 314°
2026-05-09 00:34 32.39107 -20.38743 36039 ft 395 kts 314°
2026-05-09 00:34 32.43328 -20.42953 36036 ft 395 kts 314°
2026-05-09 00:35 32.47515 -20.47133 36030 ft 395 kts 314°
2026-05-09 00:35 32.51696 -20.51314 36039 ft 395 kts 314°
2026-05-09 00:36 32.55910 -20.55532 36044 ft 396 kts 314°
2026-05-09 00:36 32.60106 -20.59738 36032 ft 396 kts 314°
2026-05-09 00:37 32.64306 -20.63953 36037 ft 396 kts 314°
2026-05-09 00:37 32.68523 -20.68191 36036 ft 396 kts 314°
2026-05-09 00:38 32.72713 -20.72407 36070 ft 396 kts 314°
2026-05-09 00:38 32.76905 -20.76630 36047 ft 396 kts 314°
2026-05-09 00:39 32.81090 -20.80851 36003 ft 395 kts 314°
2026-05-09 00:39 32.85288 -20.85092 36023 ft 395 kts 314°
2026-05-09 00:40 32.88779 -20.88623 36033 ft 395 kts 314°
2026-05-09 00:40 32.92958 -20.92855 36078 ft 395 kts 314°
2026-05-09 00:41 32.99246 -20.99231 36035 ft 396 kts 314°
2026-05-09 00:41 33.03483 -21.03465 36035 ft 397 kts 315°
2026-05-09 00:42 33.07725 -21.07631 36034 ft 397 kts 315°
2026-05-09 00:42 33.11972 -21.11809 36030 ft 396 kts 315°
2026-05-09 00:43 33.16233 -21.16018 36044 ft 397 kts 315°
2026-05-09 00:43 33.20474 -21.20215 36032 ft 397 kts 315°
2026-05-09 00:44 33.24728 -21.24433 36033 ft 397 kts 315°
2026-05-09 00:44 33.28967 -21.28641 36032 ft 397 kts 315°
2026-05-09 00:45 33.33192 -21.32842 36032 ft 397 kts 315°
2026-05-09 00:45 33.37445 -21.37075 36039 ft 397 kts 315°
2026-05-09 00:46 33.41674 -21.41290 36035 ft 397 kts 315°
2026-05-09 00:46 33.45905 -21.45512 36032 ft 396 kts 315°
2026-05-09 00:47 33.50141 -21.49745 36026 ft 396 kts 315°
2026-05-09 00:47 33.54380 -21.53987 36032 ft 396 kts 315°
2026-05-09 00:48 33.58597 -21.58212 36043 ft 397 kts 315°
2026-05-09 00:48 33.62829 -21.62458 36035 ft 397 kts 315°
2026-05-09 00:49 33.67079 -21.66728 36033 ft 397 kts 315°
2026-05-09 00:49 33.71314 -21.70988 36035 ft 397 kts 315°
2026-05-09 00:50 33.75530 -21.75235 36033 ft 397 kts 315°
2026-05-09 00:50 33.79769 -21.79511 36033 ft 398 kts 315°
2026-05-09 00:51 33.83985 -21.83768 36031 ft 397 kts 315°
2026-05-09 00:51 33.88222 -21.88054 36029 ft 397 kts 315°
2026-05-09 00:52 33.92437 -21.92324 36030 ft 397 kts 315°
2026-05-09 00:52 33.96656 -21.96602 36028 ft 397 kts 315°
2026-05-09 00:53 34.00876 -22.00879 36027 ft 397 kts 315°
2026-05-09 00:53 34.05154 -22.05107 36025 ft 398 kts 315°
2026-05-09 00:54 34.09454 -22.09327 36030 ft 398 kts 315°
2026-05-09 00:54 34.13746 -22.13554 36030 ft 398 kts 315°
2026-05-09 00:55 34.18029 -22.17787 36063 ft 398 kts 315°
2026-05-09 00:55 34.22294 -22.22010 36029 ft 398 kts 315°
2026-05-09 00:56 34.26584 -22.26264 36037 ft 398 kts 315°
2026-05-09 00:56 34.30843 -22.30495 36027 ft 397 kts 315°
2026-05-09 00:57 34.35116 -22.34744 36026 ft 397 kts 315°
2026-05-09 00:57 34.39365 -22.38976 36067 ft 396 kts 315°
2026-05-09 00:58 34.43617 -22.43216 36035 ft 396 kts 315°
2026-05-09 00:58 34.47859 -22.47452 36016 ft 395 kts 315°
2026-05-09 00:59 34.52100 -22.51692 36027 ft 395 kts 315°
2026-05-09 00:59 34.56342 -22.55940 36024 ft 395 kts 315°
2026-05-09 01:00 34.60585 -22.60193 36046 ft 396 kts 315°
2026-05-09 01:00 34.64807 -22.64433 36044 ft 397 kts 315°
2026-05-09 01:01 34.69066 -22.68715 36028 ft 397 kts 315°
2026-05-09 01:01 34.73334 -22.73012 36032 ft 397 kts 315°
2026-05-09 01:02 34.77560 -22.77273 36027 ft 397 kts 315°
2026-05-09 01:02 34.81816 -22.81570 36023 ft 397 kts 315°
2026-05-09 01:03 34.86075 -22.85876 36030 ft 397 kts 315°
2026-05-09 01:03 34.90327 -22.90181 36027 ft 397 kts 315°
2026-05-09 01:04 34.94583 -22.94496 36027 ft 397 kts 315°
2026-05-09 01:04 34.98812 -22.98789 36071 ft 397 kts 315°
2026-05-09 01:05 35.03094 -23.03081 36043 ft 397 kts 316°
2026-05-09 01:06 35.09550 -23.09417 36033 ft 396 kts 316°
2026-05-09 01:06 35.13810 -23.13611 36026 ft 395 kts 316°
2026-05-09 01:07 35.18091 -23.17840 36070 ft 395 kts 316°
2026-05-09 01:07 35.22378 -23.22086 36041 ft 396 kts 316°
2026-05-09 01:08 35.26645 -23.26316 36046 ft 396 kts 316°
2026-05-09 01:08 35.30933 -23.30574 36025 ft 397 kts 316°
2026-05-09 01:09 35.35224 -23.34841 36030 ft 397 kts 316°
2026-05-09 01:09 35.39483 -23.39081 36046 ft 397 kts 316°
2026-05-09 01:10 35.43767 -23.43352 36016 ft 396 kts 316°
2026-05-09 01:10 35.48038 -23.47617 36026 ft 396 kts 316°
2026-05-09 01:11 35.52315 -23.51894 36046 ft 396 kts 316°
2026-05-09 01:11 35.56571 -23.56157 36070 ft 396 kts 316°
2026-05-09 01:12 35.60845 -23.60443 36045 ft 396 kts 316°
2026-05-09 01:12 35.65121 -23.64737 36039 ft 396 kts 316°
2026-05-09 01:13 35.69392 -23.69032 36040 ft 396 kts 316°
2026-05-09 01:13 35.73628 -23.73298 36037 ft 396 kts 316°
2026-05-09 01:14 35.77889 -23.77595 36043 ft 395 kts 316°
2026-05-09 01:14 35.82152 -23.81901 36037 ft 396 kts 316°
2026-05-09 01:15 35.86408 -23.86207 36040 ft 396 kts 316°
2026-05-09 01:15 35.90639 -23.90493 36044 ft 396 kts 316°
2026-05-09 01:16 35.94896 -23.94812 36041 ft 396 kts 316°
2026-05-09 01:16 35.99153 -23.99136 36038 ft 396 kts 315°
2026-05-09 01:17 36.04967 -24.05793 36046 ft 393 kts 311°
2026-05-09 01:17 36.08887 -24.10527 36033 ft 393 kts 311°
2026-05-09 01:18 36.12636 -24.15037 36069 ft 394 kts 311°
2026-05-09 01:18 36.16569 -24.19751 36057 ft 395 kts 312°
2026-05-09 01:19 36.20503 -24.24463 36044 ft 395 kts 312°
2026-05-09 01:19 36.24475 -24.29227 35488 ft 401 kts 311°
2026-05-09 01:20 36.26474 -24.31626 34868 ft 398 kts 311°
2026-05-09 01:20 36.28465 -24.34016 34206 ft 398 kts 311°
2026-05-09 01:20 36.30450 -24.36402 33538 ft 396 kts 311°
2026-05-09 01:20 36.32388 -24.38731 32968 ft 392 kts 311°
2026-05-09 01:21 36.34347 -24.41090 32244 ft 392 kts 312°
2026-05-09 01:21 36.36306 -24.43450 31664 ft 389 kts 312°
2026-05-09 01:21 36.38238 -24.45777 31186 ft 383 kts 312°
2026-05-09 01:21 36.40149 -24.48082 30705 ft 379 kts 312°
2026-05-09 01:22 36.42010 -24.50328 30197 ft 375 kts 312°
2026-05-09 01:22 36.43873 -24.52580 29615 ft 372 kts 312°
2026-05-09 01:22 36.45526 -24.54578 29096 ft 368 kts 312°
2026-05-09 01:22 36.47354 -24.56791 28504 ft 365 kts 313°
2026-05-09 01:23 36.49166 -24.58985 27975 ft 361 kts 313°
2026-05-09 01:23 36.50950 -24.61146 27532 ft 355 kts 313°
2026-05-09 01:23 36.52709 -24.63279 26996 ft 352 kts 313°
2026-05-09 01:23 36.54459 -24.65402 26403 ft 350 kts 313°
2026-05-09 01:24 36.56081 -24.67373 25882 ft 349 kts 313°
2026-05-09 01:24 36.57813 -24.69477 25365 ft 346 kts 313°
2026-05-09 01:24 36.59507 -24.71536 24820 ft 343 kts 313°
2026-05-09 01:24 36.61214 -24.73613 24312 ft 341 kts 314°
2026-05-09 01:25 36.62904 -24.75671 23838 ft 338 kts 314°
2026-05-09 01:25 36.64581 -24.77713 23324 ft 336 kts 314°
2026-05-09 01:25 36.66245 -24.79741 22741 ft 334 kts 314°
2026-05-09 01:25 36.67901 -24.81760 22178 ft 333 kts 314°
2026-05-09 01:26 36.69555 -24.83779 21619 ft 331 kts 314°
2026-05-09 01:26 36.71138 -24.85712 21118 ft 329 kts 314°
2026-05-09 01:26 36.72772 -24.87709 20554 ft 328 kts 314°
2026-05-09 01:26 36.74397 -24.89696 20081 ft 325 kts 314°
2026-05-09 01:27 36.76010 -24.91669 19627 ft 323 kts 314°
2026-05-09 01:27 36.77604 -24.93620 19190 ft 320 kts 315°
2026-05-09 01:27 36.79188 -24.95560 18762 ft 317 kts 315°
2026-05-09 01:27 36.80757 -24.97484 18339 ft 315 kts 315°
2026-05-09 01:28 36.81789 -24.98749 18023 ft 313 kts 315°
2026-05-09 01:28 36.83836 -25.01260 17457 ft 309 kts 315°
2026-05-09 01:28 36.85359 -25.03131 17003 ft 306 kts 315°
2026-05-09 01:28 36.86864 -25.04981 16613 ft 302 kts 315°
2026-05-09 01:29 36.88356 -25.06814 16204 ft 299 kts 315°
2026-05-09 01:29 36.89354 -25.08042 15931 ft 297 kts 315°
2026-05-09 01:29 36.90825 -25.09851 15527 ft 295 kts 315°
2026-05-09 01:29 36.92262 -25.11620 15144 ft 293 kts 315°
2026-05-09 01:30 36.93706 -25.13398 14757 ft 291 kts 315°
2026-05-09 01:30 36.95223 -25.15056 14363 ft 289 kts 326°
2026-05-09 01:30 36.97021 -25.16179 14022 ft 288 kts 336°
2026-05-09 01:30 36.98952 -25.16836 13692 ft 290 kts 347°
2026-05-09 01:31 37.00658 -25.17048 13369 ft 294 kts 351°
2026-05-09 01:31 37.02698 -25.17212 13006 ft 297 kts 352°
2026-05-09 01:31 37.04791 -25.17360 12603 ft 302 kts 352°
2026-05-09 01:31 37.06899 -25.17508 12203 ft 302 kts 352°
2026-05-09 01:32 37.08989 -25.17659 11819 ft 299 kts 352°
2026-05-09 01:32 37.11056 -25.17814 11413 ft 296 kts 352°
2026-05-09 01:32 37.13080 -25.17969 11041 ft 293 kts 353°
2026-05-09 01:32 37.15104 -25.18128 10719 ft 289 kts 353°
2026-05-09 01:33 37.17068 -25.18282 10620 ft 277 kts 353°
2026-05-09 01:33 37.18880 -25.18425 10497 ft 268 kts 352°
2026-05-09 01:33 37.20701 -25.18570 10388 ft 258 kts 352°
2026-05-09 01:33 37.22465 -25.18712 10287 ft 249 kts 352°
2026-05-09 01:34 37.24166 -25.18849 10194 ft 240 kts 352°
2026-05-09 01:34 37.25802 -25.18981 10086 ft 232 kts 352°
2026-05-09 01:34 37.27299 -25.19104 9876 ft 230 kts 352°
2026-05-09 01:34 37.28886 -25.19234 9635 ft 227 kts 352°
2026-05-09 01:35 37.30457 -25.19363 9370 ft 225 kts 352°
2026-05-09 01:35 37.32004 -25.19490 9125 ft 227 kts 352°
2026-05-09 01:35 37.33599 -25.19623 8875 ft 232 kts 352°
2026-05-09 01:35 37.35243 -25.19759 8610 ft 240 kts 352°
2026-05-09 01:36 37.36934 -25.19898 8335 ft 243 kts 353°
2026-05-09 01:36 37.38619 -25.20035 8051 ft 241 kts 353°
2026-05-09 01:36 37.40273 -25.20168 7781 ft 240 kts 353°
2026-05-09 01:36 37.41933 -25.20303 7513 ft 238 kts 353°
2026-05-09 01:37 37.43582 -25.20438 7245 ft 236 kts 353°
2026-05-09 01:37 37.45225 -25.20572 6976 ft 235 kts 353°
2026-05-09 01:37 37.46853 -25.20705 6724 ft 234 kts 353°
2026-05-09 01:37 37.48474 -25.20838 6454 ft 233 kts 353°
2026-05-09 01:38 37.50089 -25.20970 6166 ft 232 kts 354°
2026-05-09 01:38 37.51688 -25.21100 5966 ft 227 kts 354°
2026-05-09 01:38 37.53247 -25.21227 5807 ft 221 kts 354°
2026-05-09 01:38 37.54757 -25.21350 5708 ft 213 kts 354°
2026-05-09 01:39 37.56194 -25.21467 5599 ft 209 kts 354°
2026-05-09 01:39 37.57643 -25.21653 5507 ft 207 kts 343°
2026-05-09 01:39 37.58829 -25.22552 5494 ft 197 kts 319°
2026-05-09 01:39 37.59632 -25.23930 5480 ft 198 kts 298°
2026-05-09 01:40 37.60151 -25.25546 5496 ft 201 kts 297°
2026-05-09 01:40 37.60684 -25.27191 5502 ft 205 kts 297°
2026-05-09 01:40 37.61222 -25.28862 5494 ft 205 kts 297°
2026-05-09 01:40 37.61757 -25.30531 5485 ft 204 kts 297°
2026-05-09 01:41 37.62287 -25.32189 5417 ft 206 kts 297°
2026-05-09 01:41 37.62828 -25.33885 5216 ft 209 kts 297°
2026-05-09 01:41 37.63364 -25.35579 5004 ft 206 kts 297°
2026-05-09 01:41 37.63887 -25.37228 4834 ft 202 kts 298°
2026-05-09 01:42 37.64404 -25.38863 4649 ft 194 kts 298°
2026-05-09 01:42 37.64925 -25.40363 4443 ft 185 kts 301°
2026-05-09 01:42 37.65428 -25.41810 4267 ft 177 kts 300°
2026-05-09 01:42 37.65895 -25.43237 4091 ft 173 kts 299°
2026-05-09 01:43 37.66331 -25.44615 3958 ft 166 kts 300°
2026-05-09 01:43 37.66751 -25.45955 3797 ft 161 kts 299°
2026-05-09 01:43 37.67152 -25.47241 3786 ft 157 kts 300°
2026-05-09 01:43 37.67562 -25.48546 3604 ft 160 kts 299°
2026-05-09 01:44 37.67965 -25.49841 3383 ft 156 kts 300°
2026-05-09 01:44 37.68360 -25.51110 3161 ft 153 kts 300°
2026-05-09 01:44 37.68745 -25.52342 2967 ft 155 kts 300°
2026-05-09 01:44 37.69139 -25.53604 2754 ft 154 kts 300°
2026-05-09 01:45 37.69525 -25.54845 2541 ft 149 kts 300°
2026-05-09 01:45 37.69898 -25.56042 2344 ft 142 kts 300°
2026-05-09 01:45 37.70252 -25.57175 2158 ft 136 kts 301°
2026-05-09 01:45 37.70586 -25.58242 1973 ft 130 kts 301°
2026-05-09 01:46 37.70905 -25.59306 1868 ft 131 kts 298°
2026-05-09 01:46 37.71223 -25.60362 1773 ft 129 kts 298°
2026-05-09 01:46 37.71548 -25.61463 1436 ft 137 kts 298°
2026-05-09 01:46 37.71876 -25.62564 1255 ft 130 kts 296°
2026-05-09 01:47 37.72213 -25.63631 1006 ft 130 kts 303°
2026-05-09 01:47 37.72565 -25.64666 879 ft 129 kts 302°
2026-05-09 01:47 37.72912 -25.65729 714 ft 133 kts 300°
2026-05-09 01:47 37.73270 -25.66829 564 ft 140 kts 297°
2026-05-09 01:48 37.73634 -25.67991 353 ft 146 kts 296°
2026-05-09 01:48 37.74004 -25.69147 211 ft 138 kts 293°
2026-05-09 01:48 37.74293 -25.70068 239 ft 81 kts 292°
2026-05-09 01:48 37.74400 -25.70333 252 ft 13 kts
2026-05-09 01:49 37.74429 -25.70299 252 ft 1 kts 75°
2026-05-09 01:49 37.74426 -25.70290 251 ft 4 kts 114°
2026-05-09 01:49 37.74383 -25.70255 247 ft 11 kts 156°
2026-05-09 01:49 37.74296 -25.70243 247 ft 9 kts 188°
2026-05-09 01:50 37.74238 -25.70267 247 ft 9 kts 204°
2026-05-09 01:50 37.74190 -25.70271 247 ft 3 kts 128°
2026-05-09 01:50 37.74192 -25.70255 247 ft 3 kts 82°
2026-05-09 01:50 37.74201 -25.70206 246 ft 8 kts 72°
2026-05-09 01:51 37.74212 -25.70193 246 ft 0 kts 19°